Time,TemperatureF,DewpointF,PressureIn,WindDirection,WindDirectionDegrees,WindSpeedMPH,WindSpeedGustMPH,Humidity,HourlyPrecipIn,Conditions,Clouds,dailyrainin,SoftwareType,DateUTC
2013-02-22 00:02:00,45.0,38.0,30.18,NNE,32,8.0,14.0,76,0.03,,,0.05,,2013-02-22 05:02:00,
2013-02-22 00:12:00,45.0,38.0,30.18,NNE,32,8.0,14.0,76,0.03,,,0.05,,2013-02-22 05:12:00,
2013-02-22 00:22:00,45.0,39.0,30.21,NNE,27,7.0,13.0,78,0.02,,,0.05,,2013-02-22 05:22:00,
2013-02-22 00:32:00,44.0,37.0,30.20,NE,37,9.0,15.0,77,0.01,,,0.05,,2013-02-22 05:32:00,
2013-02-22 00:42:00,44.0,37.0,30.20,NE,37,9.0,15.0,77,0.01,,,0.05,,2013-02-22 05:42:00,
2013-02-22 00:52:00,44.0,38.0,30.20,NE,38,9.0,17.0,78,0.00,,,0.05,,2013-02-22 05:52:00,
2013-02-22 01:02:00,44.0,38.0,30.21,NNE,29,8.0,17.0,80,0.00,,,0.05,,2013-02-22 06:02:00,
2013-02-22 01:12:00,44.0,38.0,30.21,NNE,29,8.0,17.0,80,0.00,,,0.05,,2013-02-22 06:12:00,
2013-02-22 01:22:00,44.0,38.0,30.22,NE,44,8.0,14.0,80,0.00,,,0.05,,2013-02-22 06:22:00,
2013-02-22 01:32:00,43.0,38.0,30.23,NNE,32,10.0,15.0,81,0.01,,,0.06,,2013-02-22 06:32:00,
2013-02-22 01:42:00,43.0,38.0,30.23,NNE,32,10.0,15.0,81,0.01,,,0.06,,2013-02-22 06:42:00,
2013-02-22 01:52:00,43.0,38.0,30.23,NNE,32,10.0,15.0,81,0.01,,,0.06,,2013-02-22 06:52:00,
2013-02-22 02:01:00,43.0,39.0,30.24,NE,35,9.0,16.0,86,0.04,,,0.09,,2013-02-22 07:01:00,
2013-02-22 02:11:00,43.0,39.0,30.24,NE,35,9.0,16.0,86,0.04,,,0.09,,2013-02-22 07:11:00,
2013-02-22 02:22:00,42.0,39.0,30.25,North,10,9.0,16.0,89,0.07,,,0.12,,2013-02-22 07:22:00,
2013-02-22 02:32:00,42.0,39.0,30.23,ENE,61,9.0,16.0,90,0.09,,,0.15,,2013-02-22 07:32:00,
2013-02-22 02:42:00,42.0,39.0,30.23,ENE,61,9.0,16.0,90,0.09,,,0.15,,2013-02-22 07:42:00,
2013-02-22 02:51:00,41.0,39.0,30.24,NNE,26,6.0,14.0,91,0.13,,,0.19,,2013-02-22 07:51:00,
2013-02-22 03:01:00,41.0,39.0,30.23,NE,50,7.0,14.0,91,0.13,,,0.22,,2013-02-22 08:01:00,
2013-02-22 03:11:00,41.0,39.0,30.23,NE,50,7.0,14.0,91,0.13,,,0.22,,2013-02-22 08:11:00,
2013-02-22 03:21:00,41.0,39.0,30.23,NE,52,5.0,12.0,92,0.13,,,0.25,,2013-02-22 08:21:00,
2013-02-22 03:32:00,40.0,38.0,30.20,NNE,13,5.0,12.0,92,0.12,,,0.27,,2013-02-22 08:32:00,
2013-02-22 03:42:00,40.0,38.0,30.20,NNE,13,5.0,12.0,92,0.12,,,0.27,,2013-02-22 08:42:00,
2013-02-22 03:52:00,40.0,38.0,30.20,NE,46,9.0,14.0,93,0.09,,,0.28,,2013-02-22 08:52:00,
2013-02-22 04:03:00,40.0,38.0,30.20,ENE,62,3.0,10.0,93,0.08,,,0.30,,2013-02-22 09:03:00,
2013-02-22 04:11:00,40.0,38.0,30.20,NE,46,5.0,9.0,93,0.06,,,0.31,,2013-02-22 09:11:00,
2013-02-22 04:22:00,40.0,38.0,30.20,NE,46,5.0,9.0,93,0.06,,,0.31,,2013-02-22 09:22:00,
2013-02-22 04:32:00,40.0,38.0,30.20,NE,46,2.0,10.0,93,0.04,,,0.31,,2013-02-22 09:32:00,
2013-02-22 04:42:00,40.0,38.0,30.20,NE,46,2.0,10.0,93,0.04,,,0.31,,2013-02-22 09:42:00,
2013-02-22 04:51:00,40.0,38.0,30.21,NE,51,4.0,12.0,92,0.03,,,0.31,,2013-02-22 09:51:00,
2013-02-22 05:01:00,40.0,38.0,30.23,ENE,61,4.0,9.0,92,0.01,,,0.31,,2013-02-22 10:01:00,
2013-02-22 05:11:00,40.0,38.0,30.23,ENE,61,4.0,9.0,92,0.01,,,0.31,,2013-02-22 10:11:00,
2013-02-22 05:21:00,40.0,38.0,30.20,NE,53,6.0,12.0,92,0.00,,,0.31,,2013-02-22 10:21:00,
2013-02-22 05:32:00,40.0,38.0,30.20,NNE,26,2.0,10.0,92,0.00,,,0.31,,2013-02-22 10:32:00,
2013-02-22 05:42:00,40.0,38.0,30.20,NNE,26,2.0,10.0,92,0.00,,,0.31,,2013-02-22 10:42:00,
2013-02-22 05:52:00,40.0,38.0,30.22,NNE,32,4.0,9.0,92,0.00,,,0.31,,2013-02-22 10:52:00,
2013-02-22 06:01:00,40.0,38.0,30.20,ENE,74,3.0,14.0,91,0.00,,,0.31,,2013-02-22 11:01:00,
2013-02-22 06:11:00,40.0,38.0,30.20,ENE,74,3.0,14.0,91,0.00,,,0.31,,2013-02-22 11:11:00,
2013-02-22 06:22:00,40.0,38.0,30.21,ENE,73,5.0,12.0,91,0.00,,,0.31,,2013-02-22 11:22:00,
2013-02-22 06:32:00,40.0,38.0,30.22,ENE,74,4.0,9.0,92,0.00,,,0.31,,2013-02-22 11:32:00,
2013-02-22 06:42:00,40.0,38.0,30.22,ENE,74,4.0,9.0,92,0.00,,,0.31,,2013-02-22 11:42:00,
2013-02-22 06:52:00,39.0,37.0,30.23,NNE,29,9.0,14.0,93,0.01,,,0.32,,2013-02-22 11:52:00,
2013-02-22 07:02:00,39.0,37.0,30.20,NE,38,5.0,15.0,92,0.02,,,0.33,,2013-02-22 12:02:00,
2013-02-22 07:11:00,39.0,37.0,30.20,NE,38,5.0,15.0,92,0.02,,,0.33,,2013-02-22 12:11:00,
2013-02-22 07:22:00,39.0,37.0,30.23,NE,42,6.0,15.0,93,0.03,,,0.34,,2013-02-22 12:22:00,
2013-02-22 07:32:00,39.0,37.0,30.21,NNE,13,5.0,13.0,93,0.03,,,0.34,,2013-02-22 12:32:00,
2013-02-22 07:42:00,39.0,37.0,30.21,NNE,13,5.0,13.0,93,0.03,,,0.34,,2013-02-22 12:42:00,
2013-02-22 07:52:00,39.0,37.0,30.21,NNE,25,8.0,15.0,93,0.02,,,0.34,,2013-02-22 12:52:00,
2013-02-22 08:02:00,39.0,37.0,30.22,East,98,2.0,5.0,92,0.02,,,0.35,,2013-02-22 13:02:00,
2013-02-22 08:11:00,39.0,37.0,30.22,East,98,2.0,5.0,92,0.02,,,0.35,,2013-02-22 13:11:00,
2013-02-22 08:22:00,39.0,36.0,30.24,NNE,32,6.0,15.0,90,0.01,,,0.35,,2013-02-22 13:22:00,
2013-02-22 08:32:00,39.0,36.0,30.24,NE,47,4.0,12.0,90,0.02,,,0.36,,2013-02-22 13:32:00,
2013-02-22 08:42:00,39.0,36.0,30.24,NE,47,4.0,12.0,90,0.02,,,0.36,,2013-02-22 13:42:00,
2013-02-22 08:52:00,39.0,36.0,30.25,NE,46,3.0,6.0,90,0.03,,,0.37,,2013-02-22 13:52:00,
2013-02-22 09:01:00,39.0,37.0,30.24,ENE,69,2.0,8.0,91,0.02,,,0.37,,2013-02-22 14:01:00,
2013-02-22 09:11:00,39.0,37.0,30.24,NE,51,2.0,6.0,92,0.02,,,0.37,,2013-02-22 14:11:00,
2013-02-22 09:21:00,39.0,37.0,30.24,NE,51,2.0,6.0,92,0.02,,,0.37,,2013-02-22 14:21:00,
2013-02-22 09:32:00,39.0,37.0,30.24,NNE,31,4.0,8.0,92,0.01,,,0.37,,2013-02-22 14:32:00,
2013-02-22 09:42:00,39.0,37.0,30.24,NNE,31,4.0,8.0,92,0.01,,,0.37,,2013-02-22 14:42:00,
2013-02-22 09:52:00,39.0,37.0,30.24,NNE,19,5.0,9.0,92,0.00,,,0.37,,2013-02-22 14:52:00,
2013-02-22 10:02:00,39.0,37.0,30.24,NNE,21,4.0,10.0,93,0.00,,,0.37,,2013-02-22 15:02:00,
2013-02-22 10:12:00,39.0,37.0,30.24,NNE,21,4.0,10.0,93,0.00,,,0.37,,2013-02-22 15:12:00,
2013-02-22 10:22:00,39.0,37.0,30.23,North,5,6.0,12.0,93,0.01,,,0.38,,2013-02-22 15:22:00,
2013-02-22 10:32:00,39.0,37.0,30.23,NNE,24,7.0,13.0,93,0.01,,,0.38,,2013-02-22 15:32:00,
2013-02-22 10:42:00,39.0,37.0,30.23,NNE,24,7.0,13.0,93,0.01,,,0.38,,2013-02-22 15:42:00,
2013-02-22 10:52:00,40.0,38.0,30.24,NE,38,2.0,8.0,92,0.01,,,0.38,,2013-02-22 15:52:00,
2013-02-22 11:02:00,39.0,37.0,30.23,ENE,62,6.0,13.0,92,0.01,,,0.38,,2013-02-22 16:02:00,
2013-02-22 11:12:00,39.0,37.0,30.23,ENE,62,6.0,13.0,92,0.01,,,0.38,,2013-02-22 16:12:00,
2013-02-22 11:22:00,39.0,37.0,30.24,East,79,5.0,10.0,93,0.01,,,0.39,,2013-02-22 16:22:00,
2013-02-22 11:32:00,39.0,37.0,30.24,East,79,5.0,10.0,93,0.01,,,0.39,,2013-02-22 16:32:00,
2013-02-22 11:42:00,39.0,37.0,30.24,East,79,5.0,10.0,93,0.01,,,0.39,,2013-02-22 16:42:00,
2013-02-22 11:52:00,39.0,37.0,30.22,NE,47,7.0,11.0,94,0.01,,,0.39,,2013-02-22 16:52:00,
2013-02-22 12:01:00,40.0,38.0,30.22,NNE,14,7.0,12.0,93,0.02,,,0.40,,2013-02-22 17:01:00,
2013-02-22 12:11:00,40.0,38.0,30.22,NNE,14,7.0,12.0,93,0.02,,,0.40,,2013-02-22 17:11:00,
2013-02-22 12:22:00,39.0,37.0,30.21,NE,55,8.0,14.0,93,0.01,,,0.40,,2013-02-22 17:22:00,
2013-02-22 12:32:00,39.0,37.0,30.21,NNE,19,5.0,8.0,93,0.01,,,0.40,,2013-02-22 17:32:00,
2013-02-22 12:42:00,39.0,37.0,30.21,NNE,19,5.0,8.0,93,0.01,,,0.40,,2013-02-22 17:42:00,
2013-02-22 12:52:00,39.0,37.0,30.20,ENE,78,4.0,11.0,93,0.01,,,0.40,,2013-02-22 17:52:00,
2013-02-22 13:02:00,40.0,38.0,30.20,North,351,3.0,9.0,93,0.00,,,0.40,,2013-02-22 18:02:00,
2013-02-22 13:12:00,40.0,38.0,30.20,North,351,3.0,9.0,93,0.00,,,0.40,,2013-02-22 18:12:00,
2013-02-22 13:22:00,40.0,38.0,30.19,NE,44,2.0,10.0,94,0.00,,,0.40,,2013-02-22 18:22:00,
2013-02-22 13:32:00,40.0,38.0,30.19,East,90,2.0,10.0,93,0.00,,,0.40,,2013-02-22 18:32:00,
2013-02-22 13:42:00,40.0,38.0,30.19,East,90,2.0,10.0,93,0.00,,,0.40,,2013-02-22 18:42:00,
2013-02-22 13:52:00,40.0,38.0,30.19,NE,47,1.0,5.0,94,0.00,,,0.40,,2013-02-22 18:52:00,
2013-02-22 14:01:00,40.0,38.0,30.19,ENE,57,1.0,7.0,94,0.00,,,0.40,,2013-02-22 19:01:00,
2013-02-22 14:11:00,40.0,38.0,30.19,North,360,4.0,7.0,94,0.00,,,0.40,,2013-02-22 19:11:00,
2013-02-22 14:21:00,40.0,38.0,30.19,North,360,4.0,7.0,94,0.00,,,0.40,,2013-02-22 19:21:00,
2013-02-22 14:31:00,40.0,38.0,30.18,NNE,32,2.0,8.0,94,0.00,,,0.40,,2013-02-22 19:31:00,
2013-02-22 14:41:00,40.0,38.0,30.18,NNE,32,2.0,8.0,94,0.00,,,0.40,,2013-02-22 19:41:00,
2013-02-22 14:52:00,40.0,38.0,30.17,ENE,60,3.0,8.0,94,0.00,,,0.40,,2013-02-22 19:52:00,
2013-02-22 15:01:00,40.0,39.0,30.18,NE,46,1.0,7.0,95,0.00,,,0.40,,2013-02-22 20:01:00,
2013-02-22 15:11:00,40.0,39.0,30.18,NE,46,1.0,7.0,95,0.00,,,0.40,,2013-02-22 20:11:00,
2013-02-22 15:21:00,40.0,39.0,30.17,NE,45,4.0,7.0,95,0.00,,,0.40,,2013-02-22 20:21:00,
2013-02-22 15:32:00,40.0,39.0,30.16,NE,49,4.0,8.0,95,0.01,,,0.41,,2013-02-22 20:32:00,
2013-02-22 15:42:00,40.0,39.0,30.16,NE,49,4.0,8.0,95,0.01,,,0.41,,2013-02-22 20:42:00,
2013-02-22 15:52:00,40.0,39.0,30.16,NNE,17,6.0,8.0,95,0.01,,,0.41,,2013-02-22 20:52:00,
2013-02-22 16:02:00,40.0,39.0,30.16,NNE,19,3.0,8.0,95,0.01,,,0.41,,2013-02-22 21:02:00,
2013-02-22 16:11:00,40.0,39.0,30.16,NNE,19,3.0,8.0,95,0.01,,,0.41,,2013-02-22 21:11:00,
2013-02-22 16:21:00,40.0,39.0,30.15,NE,42,5.0,13.0,95,0.01,,,0.41,,2013-02-22 21:21:00,
2013-02-22 16:32:00,40.0,39.0,30.15,NE,38,6.0,14.0,95,0.00,,,0.41,,2013-02-22 21:32:00,
2013-02-22 16:42:00,40.0,39.0,30.15,NE,38,6.0,14.0,95,0.00,,,0.41,,2013-02-22 21:42:00,
2013-02-22 16:52:00,40.0,39.0,30.15,ENE,59,3.0,6.0,95,0.00,,,0.41,,2013-02-22 21:52:00,
2013-02-22 17:01:00,40.0,39.0,30.15,ENE,59,3.0,6.0,95,0.00,,,0.41,,2013-02-22 22:01:00,
2013-02-22 17:11:00,40.0,39.0,30.15,ENE,59,3.0,6.0,95,0.00,,,0.41,,2013-02-22 22:11:00,
2013-02-22 17:21:00,40.0,39.0,30.14,NE,46,2.0,8.0,95,0.00,,,0.41,,2013-02-22 22:21:00,
2013-02-22 17:32:00,40.0,39.0,30.14,East,100,2.0,5.0,96,0.00,,,0.41,,2013-02-22 22:32:00,
2013-02-22 17:42:00,40.0,39.0,30.14,East,100,2.0,5.0,96,0.00,,,0.41,,2013-02-22 22:42:00,
2013-02-22 17:51:00,40.0,39.0,30.14,ENE,64,2.0,9.0,95,0.00,,,0.41,,2013-02-22 22:51:00,
2013-02-22 18:01:00,40.0,39.0,30.14,NE,45,3.0,6.0,96,0.00,,,0.41,,2013-02-22 23:01:00,
2013-02-22 18:11:00,40.0,39.0,30.14,NE,45,3.0,6.0,96,0.00,,,0.41,,2013-02-22 23:11:00,
2013-02-22 18:21:00,40.0,39.0,30.13,ENE,73,4.0,7.0,96,0.00,,,0.41,,2013-02-22 23:21:00,
2013-02-22 18:32:00,40.0,39.0,30.14,NE,34,3.0,8.0,96,0.00,,,0.41,,2013-02-22 23:32:00,
2013-02-22 18:42:00,40.0,39.0,30.14,NE,34,3.0,8.0,96,0.00,,,0.41,,2013-02-22 23:42:00,
2013-02-22 18:52:00,40.0,39.0,30.14,North,9,3.0,6.0,96,0.00,,,0.41,,2013-02-22 23:52:00,
2013-02-22 19:02:00,40.0,39.0,30.14,ENE,64,3.0,9.0,96,0.00,,,0.41,,2013-02-23 00:02:00,
2013-02-22 19:11:00,40.0,39.0,30.14,ENE,64,3.0,9.0,96,0.00,,,0.41,,2013-02-23 00:11:00,
2013-02-22 19:21:00,40.0,39.0,30.14,East,101,1.0,5.0,96,0.00,,,0.41,,2013-02-23 00:21:00,
2013-02-22 19:32:00,40.0,39.0,30.14,East,80,3.0,6.0,96,0.00,,,0.41,,2013-02-23 00:32:00,
2013-02-22 19:42:00,40.0,39.0,30.14,East,80,3.0,6.0,96,0.00,,,0.41,,2013-02-23 00:42:00,
2013-02-22 19:51:00,39.0,38.0,30.14,ENE,72,3.0,8.0,96,0.00,,,0.41,,2013-02-23 00:51:00,
2013-02-22 20:01:00,39.0,38.0,30.15,East,81,2.0,9.0,96,0.00,,,0.41,,2013-02-23 01:01:00,
2013-02-22 20:11:00,39.0,38.0,30.15,East,81,2.0,9.0,96,0.00,,,0.41,,2013-02-23 01:11:00,
2013-02-22 20:21:00,39.0,38.0,30.15,ESE,104,2.0,6.0,96,0.00,,,0.41,,2013-02-23 01:21:00,
2013-02-22 20:32:00,39.0,38.0,30.16,NE,56,2.0,5.0,96,0.00,,,0.41,,2013-02-23 01:32:00,
2013-02-22 20:42:00,39.0,38.0,30.16,NE,56,2.0,5.0,96,0.00,,,0.41,,2013-02-23 01:42:00,
2013-02-22 20:51:00,39.0,38.0,30.14,ENE,67,1.0,5.0,97,0.00,,,0.41,,2013-02-23 01:51:00,
2013-02-22 21:01:00,39.0,38.0,30.16,ENE,58,1.0,8.0,96,0.00,,,0.41,,2013-02-23 02:01:00,
2013-02-22 21:11:00,39.0,38.0,30.18,NNE,19,1.0,4.0,96,0.00,,,0.41,,2013-02-23 02:11:00,
2013-02-22 21:21:00,39.0,38.0,30.18,NNE,19,1.0,4.0,96,0.00,,,0.41,,2013-02-23 02:21:00,
2013-02-22 21:32:00,39.0,38.0,30.17,ENE,66,1.0,4.0,97,0.00,,,0.41,,2013-02-23 02:32:00,
2013-02-22 21:42:00,39.0,38.0,30.17,ENE,66,1.0,4.0,97,0.00,,,0.41,,2013-02-23 02:42:00,
2013-02-22 21:52:00,39.0,38.0,30.15,ENE,57,3.0,7.0,96,0.01,,,0.42,,2013-02-23 02:52:00,
2013-02-22 22:02:00,39.0,38.0,30.16,ENE,78,3.0,5.0,96,0.01,,,0.42,,2013-02-23 03:02:00,
2013-02-22 22:11:00,39.0,38.0,30.16,ENE,78,3.0,5.0,96,0.01,,,0.42,,2013-02-23 03:11:00,
2013-02-22 22:21:00,39.0,38.0,30.14,East,86,3.0,9.0,97,0.01,,,0.42,,2013-02-23 03:21:00,
2013-02-22 22:32:00,39.0,38.0,30.11,NNE,32,6.0,11.0,97,0.01,,,0.42,,2013-02-23 03:32:00,
2013-02-22 22:42:00,39.0,38.0,30.11,NNE,32,6.0,11.0,97,0.01,,,0.42,,2013-02-23 03:42:00,
2013-02-22 22:52:00,39.0,38.0,30.13,East,89,3.0,8.0,97,0.00,,,0.42,,2013-02-23 03:52:00,
2013-02-22 23:01:00,39.0,38.0,30.15,East,90,1.0,8.0,97,0.00,,,0.42,,2013-02-23 04:01:00,
2013-02-22 23:11:00,39.0,38.0,30.13,NNE,13,3.0,6.0,97,0.00,,,0.42,,2013-02-23 04:11:00,
2013-02-22 23:21:00,39.0,38.0,30.13,NNE,13,3.0,6.0,97,0.00,,,0.42,,2013-02-23 04:21:00,
2013-02-22 23:32:00,39.0,38.0,30.13,ESE,103,2.0,10.0,97,0.00,,,0.38,,2013-02-23 04:32:00,
2013-02-22 23:42:00,39.0,38.0,30.13,ESE,103,2.0,10.0,97,0.00,,,0.38,,2013-02-23 04:42:00,
2013-02-22 23:51:00,39.0,38.0,30.14,SSE,159,2.0,5.0,97,0.00,,,0.38,,2013-02-23 04:51:00,